Vorticity
2 2 2 2 2 2 2 2 2 2 2 2 3 3 3 3 3 2 2 2 3 4 5 5 5 4 3 3 5 7 9 8 6 4 2 2 3 4 5 5 5 6 6 8 9 11 13 12 11 11 11 13 13 12 10 7 5 4 4 4 4 4 4 4 4 4 4 4 3 3 3 3 3 4 4 4 3 3 3 3 3 3 3 3 3 3 3 4 4 4 4 4 4 5 5 5 5 6 6 6 6 6 6
3 2 2 2 2 2 2 2 2 2 2 2 3 3 3 3 3 2 2 3 3 4 4 5 5 4 4 4 5 7 9 9 7 4 3 2 3 5 5 5 6 6 7 8 9 11 13 12 12 11 11 12 12 11 10 7 5 4 4 5 5 5 4 4 4 4 4 3 3 3 3 3 4 4 4 4 4 3 3 3 3 3 3 3 3 3 3 4 4 4 4 5 5 5 5 6 6 6 6 6 6 6 5
3 2 2 2 2 2 2 2 2 2 2 2 3 3 3 3 3 2 2 3 3 4 4 5 5 5 4 4 6 8 9 9 7 5 3 3 4 5 6 6 6 6 7 8 9 11 13 13 13 12 11 11 11 10 9 7 5 4 5 5 5 5 4 4 4 4 4 3 3 3 3 4 4 4 4 4 3 3 3 3 3 3 3 3 3 3 4 4 4 4 5 5 5 5 6 6 6 6 6 6 6 6 5
3 2 2 2 2 2 2 2 2 2 2 2 3 3 3 3 3 2 2 3 3 4 4 5 5 5 5 5 6 8 9 9 7 5 3 3 4 5 6 6 6 6 7 8 9 11 13 14 14 12 11 10 10 9 7 6 5 5 5 6 6 5 4 4 3 3 4 3 3 3 3 4 4 4 4 4 3 3 3 3 3 3 3 3 3 4 4 4 4 5 5 5 5 5 5 5 6 6 6 6 6 5 5
3 3 2 2 2 2 2 2 2 2 2 2 3 3 3 3 2 2 2 3 3 4 4 5 5 6 5 5 6 8 9 9 7 5 3 3 4 6 6 6 6 6 7 8 10 12 14 15 14 13 11 10 8 8 6 5 5 5 6 6 6 6 5 4 3 3 3 3 3 3 3 4 4 4 3 3 3 3 3 3 3 3 3 3 4 4 4 5 5 5 5 5 5 5 5 5 5 6 6 5 5 5 5
3 3 2 2 2 2 2 2 2 2 2 2 3 3 3 3 2 2 2 3 3 4 4 5 6 6 5 5 6 8 9 8 6 4 3 3 5 6 6 6 6 6 7 8 10 12 15 15 15 13 11 9 8 7 5 5 5 5 6 6 6 6 5 4 3 3 3 3 3 3 3 3 3 3 3 3 3 3 3 3 3 3 3 3 4 4 5 5 5 5 5 5 5 5 5 5 5 5 5 5 5 5 5
3 3 3 2 2 2 2 2 2 2 2 2 3 3 3 3 2 2 3 3 3 4 4 5 6 6 5 5 6 8 9 8 6 4 2 3 4 6 7 6 6 6 7 8 10 13 16 17 15 13 12 9 7 6 5 4 4 5 6 6 6 6 5 4 4 3 3 3 3 3 3 3 3 3 3 3 3 3 3 3 3 3 3 4 4 4 5 5 5 5 5 5 5 5 5 5 6 6 5 5 5 5 5
2 3 3 3 3 2 2 2 2 2 2 2 3 3 3 2 2 3 3 4 4 4 4 6 6 6 5 5 6 8 8 7 5 3 2 3 4 6 7 6 6 6 7 7 9 12 17 18 17 14 12 9 7 5 4 4 4 4 6 6 6 5 5 4 4 4 3 3 3 3 3 3 3 3 3 3 3 3 3 3 3 3 4 4 4 5 5 5 5 5 5 5 5 5 6 6 6 6 6 5 5 5 5
2 2 3 3 3 2 2 2 2 2 3 3 3 2 2 2 3 4 4 4 4 4 5 7 7 6 4 5 6 7 8 7 5 3 2 2 4 6 7 6 6 6 6 7 8 11 17 19 18 15 12 9 7 5 4 3 4 4 5 6 6 5 4 4 3 3 3 3 3 2 3 3 3 3 3 3 3 3 3 3 3 4 4 4 4 5 5 5 5 5 5 5 5 6 6 6 6 6 6 6 6 6 6
4 2 2 3 3 3 2 2 3 3 3 3 2 2 2 3 4 5 5 4 4 5 6 7 7 5 4 5 6 7 7 6 4 2 1 2 4 6 7 6 6 6 6 6 7 10 16 19 19 16 13 9 7 5 3 3 3 4 5 6 6 5 5 4 3 3 3 3 3 3 3 3 3 3 3 3 3 3 3 3 3 4 4 4 4 5 5 5 5 5 5 5 5 5 6 6 6 6 6 6 6 6 6
6 4 2 3 3 3 2 3 3 3 3 3 2 3 3 5 5 5 5 4 4 5 7 7 6 5 3 4 6 7 7 5 4 2 1 3 4 6 7 6 6 6 6 6 7 9 14 18 19 17 13 10 7 5 4 3 3 4 5 6 6 6 5 4 3 3 2 3 3 3 3 3 3 3 3 3 3 3 3 3 3 4 4 4 4 5 5 5 5 5 5 5 5 5 5 6 6 6 6 6 6 6 6
6 5 2 3 3 3 3 3 3 3 3 3 3 4 5 6 6 5 4 4 4 5 7 6 5 4 3 4 6 7 7 5 4 3 2 3 5 6 7 6 6 5 6 6 7 8 11 17 19 18 14 11 8 5 4 3 3 4 5 5 6 6 6 5 4 4 3 3 3 3 3 3 3 3 3 3 3 3 3 3 3 4 4 4 4 4 4 4 5 5 5 5 5 5 5 5 6 6 6 6 6 6 5
4 5 3 3 3 3 3 3 3 3 3 4 5 7 7 7 6 5 3 4 5 6 6 5 4 4 4 5 6 7 7 5 4 3 2 4 5 7 7 6 6 6 6 6 7 7 9 15 18 18 15 12 9 6 4 3 3 4 5 5 6 6 6 5 5 4 4 4 4 3 3 3 3 3 3 3 3 3 3 3 3 4 4 4 4 4 4 4 4 5 5 5 5 5 5 5 5 5 6 6 5 5 5
3 3 3 3 3 3 3 3 4 4 5 7 8 9 8 7 5 4 4 5 5 5 5 4 3 4 4 5 6 6 6 5 4 3 3 4 6 7 7 7 6 6 6 7 7 7 7 12 16 18 16 13 9 7 4 4 3 4 5 5 6 6 6 5 5 4 4 4 4 3 3 3 3 3 3 3 3 3 3 3 3 4 4 4 4 4 4 4 4 4 5 5 5 5 5 5 5 5 5 5 5 5 5
1 2 3 3 3 3 3 3 4 6 8 9 9 8 7 5 4 4 5 6 6 5 3 3 3 4 5 6 5 5 5 4 4 4 4 5 6 7 7 7 6 6 6 7 7 7 7 10 14 17 17 14 10 7 5 4 4 4 4 5 6 6 6 5 5 4 4 4 4 3 3 3 3 3 3 3 3 3 3 3 3 3 4 4 4 4 4 4 4 4 5 5 5 5 5 5 5 5 5 5 5 5 5
2 2 4 4 3 3 4 4 5 6 8 8 7 6 4 3 3 4 6 6 5 4 2 2 4 5 6 6 5 5 5 4 4 4 5 5 6 7 7 7 6 6 6 7 8 8 7 8 12 15 17 14 11 8 6 4 4 4 4 5 6 6 6 6 5 4 4 3 3 3 3 3 3 3 3 3 3 3 3 3 3 3 3 4 4 4 4 4 4 4 5 5 5 5 5 5 5 5 5 5 5 5 5
5 5 6 5 4 4 4 4 5 6 6 6 5 3 1 1 3 5 6 5 4 2 2 3 5 6 7 6 5 5 5 5 5 5 5 6 7 7 8 7 6 6 6 7 8 9 8 8 9 13 16 15 12 10 7 5 4 4 4 5 6 7 7 6 5 4 4 3 3 3 3 3 3 3 3 3 3 3 3 3 3 3 3 3 4 4 4 4 4 5 5 5 5 5 5 5 5 5 5 5 5 5 5
7 8 8 7 6 5 4 4 4 5 5 3 2 0 -1 1 3 5 6 4 3 2 2 4 6 7 7 6 5 5 5 5 5 6 6 6 7 7 8 7 7 6 6 6 8 9 9 8 8 10 13 14 13 11 8 6 5 4 4 5 6 7 7 6 5 5 4 3 3 3 3 3 3 3 3 3 3 3 3 3 3 3 3 3 4 4 4 4 4 5 5 5 5 5 5 5 5 5 5 5 5 5 5
10 9 8 7 6 5 5 5 4 4 4 2 0 -1 -1 2 4 5 4 3 2 2 3 5 7 7 6 5 5 5 5 5 6 6 6 6 7 7 8 7 7 6 6 6 7 9 10 9 9 9 11 13 13 11 9 7 6 5 5 5 6 6 7 6 6 5 4 3 3 3 3 3 3 3 2 2 2 2 3 3 3 3 3 3 4 4 4 4 5 5 5 5 5 5 5 5 5 5 5 5 5 5 5
11 8 7 7 6 6 5 5 5 4 2 2 1 1 1 4 5 4 3 2 2 3 4 7 7 7 6 5 4 5 5 6 6 7 6 6 7 7 7 7 6 6 6 6 7 8 10 10 9 9 10 12 12 11 9 8 7 6 6 6 6 6 7 6 5 4 4 4 3 3 3 3 3 2 2 2 2 2 2 3 3 3 3 4 4 4 4 5 5 5 4 4 5 5 5 5 5 5 5 5 5 5 5
10 8 6 6 6 6 5 5 4 3 3 4 4 3 4 5 4 3 1 1 2 4 6 7 7 6 5 4 4 5 6 6 7 6 6 6 7 7 7 7 6 6 6 6 7 8 10 11 11 10 9 11 11 11 10 9 8 7 7 7 7 7 7 4 3 3 3 4 4 4 3 3 3 3 2 2 2 2 3 3 3 3 4 4 4 4 5 5 5 5 4 4 5 5 5 5 5 5 5 5 5 5 5
9 8 6 6 5 5 5 5 4 4 6 8 7 6 6 5 3 2 1 2 3 5 7 7 7 6 5 5 5 5 6 6 6 6 6 6 6 7 7 7 6 6 6 6 7 8 11 12 12 11 10 10 10 10 10 9 9 8 8 8 7 7 7 5 3 2 3 4 4 4 3 3 3 3 3 3 3 3 3 3 3 3 4 4 4 5 5 5 5 5 5 5 5 5 5 5 5 5 5 5 5 5 5
7 7 6 6 5 5 5 5 6 7 8 8 7 6 5 3 2 1 2 3 5 6 7 7 7 6 5 5 5 5 6 7 7 6 6 6 6 7 7 6 6 6 6 6 7 8 11 13 13 12 11 10 10 10 10 9 9 9 9 8 8 8 8 7 5 5 5 5 5 4 3 3 3 3 3 3 3 3 3 3 4 4 4 4 5 5 5 5 5 5 5 5 5 5 5 5 5 5 5 5 5 5 5
5 6 6 6 6 5 5 6 7 8 7 6 5 4 3 2 2 2 4 5 6 7 7 6 6 6 5 5 5 5 6 7 7 6 6 6 6 7 7 6 6 6 6 7 7 8 10 13 14 13 12 11 10 10 10 9 9 9 8 8 8 8 9 8 8 8 8 8 6 5 3 3 3 3 3 3 3 4 4 4 4 4 4 5 5 5 5 5 5 5 5 5 5 5 5 5 5 5 5 5 5 6 6
5 6 5 5 6 6 7 7 7 6 4 3 2 2 2 2 3 5 6 7 7 7 6 6 5 5 5 5 5 6 6 7 6 6 6 6 6 7 7 6 6 6 6 7 7 8 10 12 13 14 13 11 10 10 9 8 8 8 8 8 8 8 9 9 9 9 11 11 9 6 4 4 4 4 4 4 4 4 4 4 4 5 5 5 5 5 5 5 5 5 5 6 6 6 6 6 6 6 6 6 7 7 7
5 5 5 5 6 7 8 8 6 3 -0 -0 0 1 2 4 6 7 7 7 7 6 5 5 5 5 5 5 5 6 7 7 6 6 6 6 6 6 6 6 6 6 6 7 7 8 10 11 13 14 14 13 11 10 8 8 8 8 8 8 8 8 9 10 10 10 12 12 11 8 5 5 5 5 4 4 4 5 5 5 5 5 5 5 5 5 5 6 6 6 6 6 6 6 7 7 7 8 8 8 8 8 8
6 6 6 6 7 7 6 5 4 2 -1 -1 1 2 4 6 7 8 7 6 5 5 5 5 5 6 6 5 6 6 7 7 7 6 5 6 6 6 6 6 6 6 7 7 7 8 9 10 11 13 15 14 12 11 9 8 7 7 7 8 8 8 8 9 10 10 11 12 11 9 7 6 6 5 5 5 5 5 5 5 5 5 5 5 5 6 6 6 6 6 7 7 7 8 8 9 9 9 9 9 9 8 7
8 9 10 10 9 7 5 3 2 2 1 2 3 5 6 7 7 6 5 4 4 4 4 5 5 6 6 6 6 6 7 7 7 6 6 6 6 6 6 6 6 6 7 7 7 8 9 9 10 12 14 14 13 12 10 8 7 7 7 8 8 8 7 8 9 10 10 10 10 9 7 7 6 6 6 6 6 6 6 5 5 5 5 6 6 6 6 6 7 7 8 8 9 9 10 10 10 9 9 8 7 6 5
8 8 11 11 10 7 5 4 4 4 4 5 6 6 7 6 5 5 4 4 5 5 5 5 5 6 7 7 7 7 7 7 7 6 6 6 6 7 6 6 6 6 7 7 7 8 8 8 9 11 13 14 14 13 11 10 8 8 7 8 8 8 7 7 7 8 9 9 8 8 7 7 6 6 6 6 6 6 6 6 6 6 6 6 6 7 7 8 8 9 9 10 9 9 9 8 8 7 6 5 4 3 3
7 6 6 8 8 7 6 6 6 6 6 7 7 7 6 5 3 3 3 5 5 6 5 5 6 7 8 7 7 7 7 7 7 6 6 6 7 7 7 7 7 7 7 8 8 7 7 7 9 11 13 14 13 12 11 10 9 9 8 8 8 9 8 7 7 7 8 8 7 7 6 6 7 7 7 7 7 7 7 6 6 7 7 7 8 8 9 9 10 10 10 10 9 8 7 6 5 4 4 3 3 2 2
8 5 4 5 6 6 7 8 9 9 6 6 6 6 5 3 2 2 3 5 6 6 5 5 6 7 7 7 7 7 7 7 7 7 7 7 7 7 7 7 7 7 8 8 8 8 7 7 8 10 13 13 13 12 11 11 10 10 9 8 8 9 10 9 8 7 7 8 7 7 6 6 7 7 8 8 8 7 7 7 7 7 8 8 9 10 10 11 11 10 10 8 7 6 5 4 4 3 3 2 2 2 1
8 6 5 5 5 7 10 10 9 7 7 6 6 6 5 2 2 2 4 5 6 6 5 6 7 7 7 7 7 7 7 7 7 7 7 7 7 7 7 7 7 8 8 8 8 8 8 8 9 10 12 12 12 12 11 11 10 10 10 9 9 9 9 9 8 8 8 9 9 9 8 8 7 8 10 8 8 8 8 9 9 9 9 9 10 10 10 10 9 8 7 6 5 4 4 3 3 2 2 2 1 1 2
6 7 8 7 7 8 9 6 4 4 6 5 5 5 4 3 3 4 5 5 5 5 5 6 7 7 7 7 6 6 7 8 8 7 7 7 7 7 7 7 8 8 8 9 9 8 7 8 9 10 11 11 11 11 10 10 10 10 10 9 9 8 8 9 8 8 9 9 10 11 10 10 8 8 9 7 8 9 9 10 10 10 10 10 10 9 8 7 6 6 5 4 4 3 3 3 2 2 1 1 1 2 2
4 6 8 9 10 10 7 4 2 2 2 3 3 3 4 5 5 6 5 4 4 4 5 6 6 7 7 6 6 6 7 8 8 8 7 7 7 7 7 7 8 8 8 9 8 7 7 7 8 9 9 9 9 9 9 9 9 9 9 9 8 7 7 8 7 7 8 8 10 11 12 11 9 9 8 7 8 9 10 10 10 10 10 9 7 5 4 4 4 4 4 4 4 3 3 3 2 2 2 2 2 2 3
7 4 6 9 11 11 8 6 4 3 2 2 3 3 4 5 6 5 4 3 2 3 4 5 5 5 6 6 6 6 7 7 8 8 7 7 8 8 7 7 7 7 7 8 7 6 6 7 7 7 7 7 8 8 8 8 8 8 8 8 7 6 6 7 7 7 7 8 9 11 12 11 10 9 8 8 8 8 9 8 7 7 7 6 4 3 4 2 2 2 3 3 3 3 3 3 3 3 3 3 3 3 3
12 3 1 9 11 10 8 7 7 7 5 5 4 4 4 4 4 4 3 2 1 2 3 3 4 4 4 5 5 6 6 7 7 8 8 7 7 7 7 7 7 6 6 7 6 6 5 6 6 6 6 6 6 6 6 6 6 7 7 7 7 6 6 7 8 8 7 7 8 9 10 10 10 9 9 9 8 7 7 5 4 3 2 4 4 3 2 2 2 2 2 3 3 2 2 3 3 4 4 4 3 3 3
12 5 5 11 10 7 6 8 9 8 8 7 5 4 3 2 2 2 2 1 2 2 3 3 4 4 4 4 5 6 6 6 7 7 8 7 6 6 6 6 5 5 6 6 5 5 5 5 5 5 5 4 4 5 5 5 5 5 6 6 6 6 7 7 8 7 7 5 6 7 7 8 8 8 9 9 8 7 6 6 5 4 4 4 4 3 2 2 2 2 3 3 3 3 3 3 3 3 3 3 3 3 3
8 5 10 8 6 5 5 7 7 5 6 5 4 3 2 2 2 2 2 3 3 4 4 5 4 4 4 4 5 6 7 7 7 7 7 6 6 6 6 5 4 4 5 5 5 4 4 4 4 4 4 3 3 4 4 4 4 4 5 5 5 5 6 7 7 7 6 4 4 5 6 6 6 7 8 8 8 7 7 7 7 6 6 5 4 3 2 2 3 3 4 4 4 4 3 3 3 3 2 2 3 3 3
9 3 5 2 2 4 4 3 2 2 4 3 3 2 3 3 4 4 4 5 6 6 6 6 5 4 4 4 5 6 8 8 8 8 7 7 6 6 6 4 4 4 5 5 5 4 4 4 4 4 3 4 4 3 3 3 3 4 4 4 4 4 5 5 6 6 6 5 4 4 5 5 5 6 6 7 7 7 7 7 7 7 6 5 4 3 3 3 3 4 4 4 4 4 4 3 3 3 2 3 3 4 3
11 1 -1 0 2 3 2 0 -0 1 3 2 3 5 6 7 7 7 7 7 7 8 8 7 6 5 4 4 5 6 8 9 9 8 8 7 7 6 5 4 3 4 5 4 4 4 4 4 4 4 4 4 4 3 3 3 3 3 3 3 3 3 4 4 5 5 6 6 5 5 5 5 5 6 6 6 6 6 6 5 5 5 5 4 4 4 4 3 3 3 3 2 3 3 4 4 4 4 5 5 5 5 4
16 6 -3 1 4 5 3 2 2 2 2 4 5 7 8 9 9 9 8 8 8 7 7 7 6 5 4 3 4 5 8 9 9 8 7 7 6 5 4 4 4 4 4 4 4 4 4 4 4 4 4 4 4 4 4 4 3 3 3 4 4 4 3 4 4 5 5 6 6 7 7 6 6 6 5 5 5 5 5 5 4 4 3 3 3 4 4 3 2 2 2 2 2 3 5 5 5 5 6 6 6 5 5
24 16 2 3 6 7 5 5 4 4 3 5 7 8 9 9 9 8 8 7 6 4 3 4 4 4 3 4 4 6 8 10 10 10 8 6 5 5 4 4 4 4 4 4 4 4 4 4 4 4 4 3 4 4 5 5 4 4 4 4 4 4 4 4 4 4 5 6 7 8 9 7 6 5 5 5 5 5 5 5 5 4 3 3 3 3 3 2 2 2 2 3 3 4 5 5 5 5 5 5 5 5 6
27 24 13 8 8 10 8 6 4 4 4 5 7 9 9 8 7 7 8 7 4 1 0 1 2 3 3 4 5 7 9 11 11 11 9 6 5 5 4 4 5 5 4 4 4 5 4 4 4 4 3 3 4 5 6 6 5 5 5 5 5 5 5 6 5 5 5 6 7 8 9 7 6 5 5 5 5 5 5 5 5 4 4 3 2 2 1 1 1 2 2 3 4 4 5 4 4 5 5 5 5 6 7
20 24 20 12 9 9 8 4 2 1 2 4 7 8 6 6 7 8 8 9 6 2 -0 2 3 3 3 5 8 10 12 12 11 10 10 8 7 6 6 6 6 5 4 4 5 5 4 4 4 3 2 4 5 6 6 6 6 6 6 5 5 5 6 7 7 7 6 7 7 7 6 5 5 5 5 5 5 5 5 5 5 4 3 2 1 1 0 1 1 2 3 3 4 4 4 4 5 5 5 5 6 8 12
3 15 18 12 8 6 6 2 -0 -1 0 3 6 7 5 7 8 9 8 11 10 8 5 6 6 6 7 9 11 12 12 11 10 10 10 10 9 7 7 7 6 6 5 5 5 4 4 3 3 3 3 5 6 6 6 6 6 6 6 6 6 5 5 7 7 8 7 8 7 5 2 2 3 4 4 5 5 6 6 5 4 3 2 1 1 0 1 1 2 2 3 3 3 3 3 4 5 6 7 7 7 8 9
-13 -0 10 10 9 8 8 6 5 4 3 5 7 8 8 9 10 11 11 13 14 13 10 9 9 11 13 14 14 12 10 10 10 11 12 12 10 9 8 7 6 6 6 6 5 4 3 2 3 4 5 6 6 6 6 6 6 6 7 8 8 8 7 6 6 7 7 8 7 4 -0 1 2 4 3 3 4 5 5 4 3 2 1 1 1 1 1 2 3 3 4 4 4 3 4 6 8 10 10 10 9 8 5
-14 -13 -2 3 8 11 13 15 15 12 9 9 10 11 12 13 14 16 18 18 17 14 12 10 11 13 16 16 14 11 8 8 10 12 13 13 12 11 8 7 6 6 6 6 6 4 2 3 4 5 7 7 7 7 7 6 5 5 6 8 11 13 11 7 6 5 4 5 6 4 1 2 4 6 5 2 1 0 2 2 1 1 1 1 2 2 3 4 4 5 6 6 6 6 7 10 12 12 11 10 9 8 6
7 -5 -9 -6 -1 6 10 14 14 14 12 12 12 13 15 15 18 22 28 22 17 15 14 14 13 14 15 14 12 9 7 8 10 12 13 13 14 13 10 7 6 6 7 7 7 6 4 5 5 6 7 8 7 6 6 4 3 3 4 7 10 11 10 8 7 5 3 1 1 1 -1 1 5 8 9 4 1 -2 -4 -2 1 3 5 4 4 4 5 4 4 5 6 7 7 8 10 11 11 9 8 8 7 6 4
33 24 7 -5 -6 -2 4 4 5 7 11 12 13 14 17 17 20 23 28 19 15 14 19 19 16 13 11 9 8 7 8 10 11 13 13 12 13 14 13 9 6 5 6 7 7 7 7 7 6 6 7 7 6 5 4 4 4 4 4 5 6 5 5 6 8 8 6 3 -0 -3 -6 -5 0 5 4 0 1 1 -5 -3 2 7 9 6 5 5 4 4 4 4 5 7 9 10 12 9 6 4 4 3 2 1 1
37 43 32 8 -1 -0 5 2 -0 0 5 7 10 14 18 19 19 16 12 8 9 14 21 22 19 12 6 3 3 6 9 11 11 11 12 13 11 9 8 9 8 6 6 6 7 8 9 9 9 8 7 6 5 4 3 4 5 6 7 6 5 3 2 3 6 10 13 12 9 6 2 0 1 1 -6 -5 -1 2 -2 2 7 10 7 2 1 1 2 2 3 4 6 6 5 6 9 6 4 3 2 1 0 0 1
29 39 40 22 14 12 14 10 6 4 4 4 6 10 17 20 19 13 2 -1 3 9 13 17 16 12 3 -0 2 8 13 13 11 8 7 9 9 8 7 7 8 11 12 10 9 9 9 10 10 9 6 5 5 4 3 5 6 7 8 8 6 4 2 2 3 7 12 13 12 12 14 19 12 -0 -16 -11 -4 2 1 7 10 8 -1 -4 -4 -2 1 2 4 7 12 7 7 8 8 6 4 3 3 2 2 2 4
19 27 33 28 24 22 20 17 16 14 13 9 5 5 13 17 21 20 10 -0 -2 0 4 8 12 13 7 6 8 12 15 12 9 7 4 3 6 11 13 11 13 14 11 12 12 11 11 10 9 8 4 3 3 3 6 6 6 6 7 9 9 6 3 3 3 4 4 5 5 4 4 12 7 -3 -13 -9 -2 4 4 9 8 2 -8 -7 -4 -1 2 3 6 9 8 9 11 12 9 7 6 5 3 3 4 5 6
8 14 26 32 30 25 21 17 16 18 21 18 12 10 14 9 10 16 22 8 -3 -8 -6 -1 6 11 13 14 14 15 13 9 6 5 7 4 3 5 11 15 15 12 7 7 9 12 13 10 6 3 2 4 6 9 12 10 7 5 5 8 10 9 5 4 5 4 -1 -1 3 8 9 7 3 -2 -6 -3 -1 1 2 4 1 -4 -8 -4 -1 2 4 4 5 6 3 5 7 8 8 7 7 7 7 7 7 7 7
7 6 13 29 34 33 26 19 16 18 26 25 21 16 16 1 -4 2 17 12 2 -8 -14 -11 -5 3 13 18 18 16 10 7 5 6 11 15 12 6 4 9 8 5 7 11 12 12 12 6 3 3 4 7 11 15 18 14 11 8 6 8 9 10 7 1 -2 -5 -9 -8 -3 4 10 11 11 7 -1 -3 -4 -3 -1 -1 -3 -3 -3 0 2 4 5 6 6 6 6 6 5 4 4 4 4 5 5 5 5 5 5
9 7 4 12 22 31 34 26 21 22 31 30 20 9 2 -6 -7 -2 10 10 6 -1 -10 -11 -10 -6 4 12 16 15 9 6 6 9 13 20 21 16 5 2 1 2 1 3 9 11 2 5 6 8 13 12 15 17 16 13 12 12 11 10 10 10 10 4 -3 -8 -11 -8 -3 1 4 2 4 5 4 1 -0 -0 -0 -1 -0 0 2 3 4 5 6 7 8 8 8 7 6 5 4 3 3 3 4 4 4 4 4
3 5 3 4 11 21 31 31 26 23 27 28 18 4 -8 -10 -10 -8 -5 1 4 3 1 -5 -10 -11 -3 8 14 16 12 8 7 9 12 12 12 13 14 14 10 4 -2 -2 3 7 5 4 7 13 19 17 16 15 11 10 12 14 15 14 13 12 13 11 6 0 -3 -1 2 3 -2 -7 -5 -0 3 4 4 4 3 3 3 4 5 6 6 7 7 7 8 8 8 7 6 5 5 4 4 4 4 4 4 4 4
-1 0 0 2 6 12 20 28 29 26 19 18 14 9 2 2 -0 -2 -3 -0 4 9 12 6 -4 -9 -2 5 13 20 23 16 11 8 8 5 3 4 7 16 20 19 13 11 11 11 14 12 11 11 14 15 17 20 22 19 18 17 18 17 15 14 13 13 9 5 3 3 3 0 -8 -9 -5 0 3 4 4 4 5 5 5 6 7 7 8 8 8 8 7 7 7 7 6 6 5 5 4 4 4 5 5 5 5
-0 -1 -2 -0 3 7 11 16 25 30 27 16 10 7 8 9 9 9 9 10 12 15 20 16 6 -3 -3 -5 0 9 20 21 15 8 3 1 -1 -2 -0 8 18 26 29 30 30 28 23 24 18 11 7 10 11 14 25 25 24 21 19 17 15 14 12 11 7 3 2 2 1 -2 -6 -5 -1 2 4 4 4 5 5 6 7 7 8 8 9 8 8 8 7 7 6 6 6 6 5 5 5 5 5 5 5 5 5
2 1 -0 0 3 5 7 7 12 22 35 27 15 5 3 9 14 17 17 15 15 17 21 19 11 -1 -12 -20 -24 -22 -15 -4 1 2 1 1 1 1 -1 5 12 17 19 21 25 28 25 25 19 13 10 9 6 5 12 15 17 17 17 15 14 13 11 8 3 0 2 2 1 -0 -2 -0 2 4 5 5 5 6 7 7 8 8 8 9 9 9 8 8 7 6 6 5 5 5 5 5 5 5 5 5 5 5 5
2 2 2 5 7 8 5 2 2 8 22 31 26 15 6 7 11 12 8 10 13 15 15 14 10 4 -7 -25 -37 -42 -38 -31 -19 -6 3 7 9 10 7 7 8 8 5 0 1 6 12 16 15 13 14 9 4 1 -0 2 4 5 4 8 9 9 6 1 -0 1 3 3 2 2 3 4 5 5 6 6 7 8 8 8 8 8 8 8 8 8 8 7 7 6 5 5 5 5 5 5 5 5 5 5 4 4 5
2 3 5 8 13 14 10 4 -1 -2 6 19 25 22 12 4 -0 -2 -4 5 15 20 15 11 11 11 7 -8 -20 -26 -25 -23 -14 -3 5 9 14 17 15 11 8 4 0 -7 -9 -8 -3 6 9 11 14 13 6 -0 -1 -2 -2 -2 -2 1 4 5 1 -1 -1 1 3 2 2 3 5 6 7 7 7 8 8 9 9 9 9 8 8 8 8 7 7 7 6 6 5 5 5 5 5 5 5 5 5 5 5 5 5
Height
3146 3147 3148 3149 3150 3151 3152 3153 3153 3154 3155 3156 3156 3156 3157 3157 3158 3158 3159 3159 3160 3160 3160 3160 3161 3161 3161 3162 3162 3162 3162 3163 3163 3163 3164 3164 3164 3164 3165 3165 3165 3165 3165 3165 3165 3166 3166 3166 3167 3167 3168 3169 3170 3170 3170 3171 3171 3172 3173 3174 3175 3175 3176 3177 3177 3178 3178 3179 3179 3180 3181 3181 3182 3182 3183 3183 3184 3184 3184 3185 3185 3185 3185 3186 3186 3186 3186 3186 3187 3187 3187 3187 3187 3187 3187 3187 3187 3187 3187 3187 3187 3187 3187
3145 3146 3147 3148 3149 3150 3151 3152 3152 3153 3154 3155 3155 3156 3156 3157 3157 3157 3158 3159 3159 3159 3159 3160 3160 3161 3161 3161 3161 3162 3162 3162 3162 3163 3163 3164 3164 3164 3164 3164 3164 3165 3165 3165 3165 3165 3166 3166 3167 3167 3168 3169 3169 3170 3170 3171 3171 3172 3173 3174 3175 3175 3176 3177 3178 3178 3178 3179 3179 3180 3181 3181 3182 3182 3183 3183 3183 3184 3184 3185 3185 3185 3186 3186 3186 3186 3186 3186 3187 3187 3187 3187 3187 3187 3187 3187 3187 3187 3187 3187 3187 3187 3187
3143 3145 3146 3147 3148 3149 3150 3151 3151 3152 3153 3154 3155 3155 3156 3156 3156 3157 3157 3158 3158 3159 3159 3159 3159 3160 3160 3161 3161 3161 3161 3161 3162 3162 3163 3163 3163 3164 3164 3164 3164 3164 3164 3165 3165 3165 3166 3166 3166 3167 3168 3168 3169 3170 3170 3171 3171 3172 3173 3174 3174 3175 3176 3177 3178 3178 3179 3179 3179 3180 3181 3181 3181 3182 3183 3183 3183 3184 3184 3185 3185 3185 3186 3186 3186 3186 3186 3187 3187 3187 3187 3187 3187 3187 3187 3187 3187 3187 3187 3187 3187 3187 3187
3142 3143 3144 3146 3147 3148 3149 3149 3151 3151 3152 3153 3154 3154 3155 3155 3156 3156 3157 3157 3157 3158 3158 3158 3159 3159 3160 3160 3160 3161 3161 3161 3161 3162 3162 3163 3163 3163 3163 3164 3164 3164 3164 3164 3165 3165 3165 3166 3166 3167 3167 3168 3169 3169 3170 3171 3171 3172 3172 3173 3174 3175 3176 3176 3177 3178 3178 3179 3179 3180 3181 3181 3181 3182 3183 3183 3183 3184 3184 3184 3185 3185 3185 3186 3186 3186 3186 3187 3187 3187 3187 3187 3187 3187 3188 3188 3188 3188 3188 3188 3188 3188 3187
3141 3142 3143 3144 3146 3146 3147 3148 3149 3150 3151 3152 3153 3153 3154 3155 3155 3156 3156 3156 3157 3157 3157 3158 3158 3158 3159 3159 3160 3160 3160 3161 3161 3161 3162 3162 3162 3163 3163 3163 3163 3164 3164 3164 3164 3165 3165 3166 3166 3167 3167 3168 3168 3169 3170 3170 3171 3171 3172 3173 3174 3175 3176 3176 3176 3177 3178 3178 3179 3180 3180 3181 3181 3182 3182 3183 3183 3184 3184 3184 3185 3185 3185 3186 3186 3186 3186 3187 3187 3187 3187 3187 3187 3187 3188 3188 3188 3188 3188 3188 3188 3188 3188
3139 3140 3142 3143 3144 3145 3146 3147 3148 3149 3150 3151 3152 3152 3153 3154 3154 3155 3155 3156 3156 3156 3157 3157 3157 3158 3158 3159 3159 3159 3160 3160 3160 3161 3161 3161 3162 3162 3162 3163 3163 3163 3164 3164 3164 3164 3165 3166 3166 3166 3167 3167 3168 3169 3170 3170 3171 3171 3172 3173 3174 3175 3175 3176 3176 3177 3177 3178 3179 3179 3180 3181 3181 3182 3182 3183 3183 3184 3184 3184 3185 3185 3185 3186 3186 3186 3186 3187 3187 3187 3187 3187 3187 3188 3188 3188 3188 3188 3188 3188 3188 3188 3188
3138 3139 3141 3142 3143 3144 3145 3146 3147 3148 3149 3150 3151 3151 3152 3153 3153 3154 3154 3155 3156 3156 3156 3156 3157 3157 3158 3158 3158 3159 3159 3159 3160 3160 3161 3161 3161 3161 3162 3162 3162 3163 3163 3164 3164 3164 3165 3165 3166 3166 3166 3167 3168 3169 3169 3170 3170 3171 3172 3173 3174 3174 3175 3176 3176 3177 3177 3178 3178 3179 3180 3180 3181 3181 3182 3183 3183 3184 3184 3184 3185 3185 3185 3186 3186 3186 3186 3186 3187 3187 3187 3187 3188 3188 3188 3188 3188 3188 3188 3188 3188 3188 3188
3136 3138 3139 3141 3142 3143 3144 3145 3146 3147 3148 3149 3150 3151 3151 3151 3152 3153 3154 3154 3155 3155 3155 3156 3156 3156 3157 3157 3158 3158 3158 3159 3159 3160 3160 3161 3161 3161 3161 3161 3162 3162 3163 3163 3163 3164 3164 3165 3165 3166 3166 3167 3167 3168 3169 3169 3170 3171 3171 3172 3173 3174 3175 3175 3176 3177 3177 3177 3178 3179 3180 3180 3181 3181 3182 3182 3183 3183 3184 3184 3184 3185 3185 3186 3186 3186 3186 3186 3187 3187 3187 3187 3188 3188 3188 3188 3188 3188 3188 3188 3188 3188 3188
3135 3136 3138 3139 3140 3141 3142 3144 3145 3146 3147 3148 3149 3150 3150 3151 3151 3152 3153 3153 3154 3154 3155 3155 3156 3156 3156 3157 3157 3157 3158 3158 3159 3159 3160 3160 3160 3161 3161 3161 3161 3162 3162 3163 3163 3163 3164 3164 3165 3166 3166 3166 3167 3168 3168 3169 3170 3170 3171 3172 3173 3173 3174 3175 3176 3177 3177 3177 3178 3179 3179 3180 3181 3181 3181 3182 3183 3183 3184 3184 3184 3185 3185 3186 3186 3186 3186 3186 3187 3187 3187 3187 3187 3188 3188 3188 3188 3188 3188 3188 3188 3188 3188
3134 3136 3137 3138 3139 3140 3141 3142 3143 3145 3146 3147 3148 3148 3149 3150 3151 3151 3151 3152 3153 3153 3154 3154 3155 3155 3156 3156 3156 3157 3157 3157 3158 3159 3159 3159 3160 3160 3160 3161 3161 3161 3162 3162 3163 3163 3163 3164 3165 3165 3166 3166 3167 3167 3168 3169 3169 3170 3171 3172 3172 3173 3174 3174 3175 3177 3178 3177 3177 3178 3179 3180 3180 3181 3181 3182 3182 3183 3183 3184 3184 3185 3185 3185 3186 3186 3186 3186 3186 3187 3187 3187 3187 3188 3188 3188 3188 3188 3188 3188 3188 3188 3188
3132 3134 3136 3136 3137 3138 3139 3141 3142 3143 3145 3146 3146 3147 3148 3149 3149 3150 3151 3151 3152 3152 3153 3154 3154 3154 3155 3156 3156 3156 3156 3157 3157 3158 3158 3159 3159 3159 3160 3160 3160 3161 3161 3162 3162 3163 3163 3164 3164 3165 3165 3166 3166 3167 3168 3168 3169 3170 3171 3171 3172 3173 3173 3174 3175 3176 3178 3178 3177 3178 3178 3179 3180 3181 3181 3182 3182 3182 3183 3184 3184 3184 3185 3185 3186 3186 3186 3186 3186 3187 3187 3187 3187 3187 3188 3188 3188 3188 3188 3188 3188 3188 3188
3131 3133 3134 3135 3136 3138 3138 3140 3141 3142 3143 3144 3145 3146 3147 3148 3148 3149 3150 3150 3151 3151 3152 3153 3153 3154 3154 3155 3155 3156 3156 3156 3157 3157 3158 3158 3159 3159 3159 3160 3160 3160 3161 3161 3162 3162 3163 3163 3164 3164 3165 3166 3166 3167 3167 3168 3169 3170 3171 3171 3172 3172 3173 3174 3175 3175 3176 3177 3178 3178 3178 3179 3180 3180 3181 3181 3182 3182 3183 3183 3184 3184 3185 3185 3185 3186 3186 3186 3186 3186 3187 3187 3187 3187 3188 3188 3188 3188 3188 3188 3188 3188 3188
3130 3131 3132 3133 3135 3136 3138 3139 3140 3141 3142 3143 3144 3145 3146 3146 3147 3148 3149 3149 3150 3151 3151 3152 3152 3153 3153 3154 3154 3155 3156 3156 3156 3157 3157 3158 3158 3158 3159 3159 3159 3160 3161 3161 3161 3162 3162 3163 3163 3164 3165 3165 3166 3166 3167 3168 3169 3169 3170 3171 3171 3172 3173 3174 3175 3175 3176 3177 3178 3178 3178 3179 3179 3180 3181 3181 3181 3182 3182 3183 3183 3184 3184 3185 3185 3185 3186 3186 3186 3186 3187 3187 3187 3187 3187 3188 3188 3188 3188 3188 3188 3188 3188
3129 3130 3131 3132 3133 3134 3135 3137 3138 3139 3141 3142 3143 3144 3145 3146 3146 3147 3148 3148 3149 3150 3150 3151 3151 3152 3152 3153 3154 3154 3155 3156 3156 3156 3157 3157 3157 3158 3158 3159 3159 3159 3160 3161 3161 3161 3162 3162 3163 3163 3164 3165 3165 3166 3166 3167 3168 3169 3170 3170 3171 3171 3172 3173 3174 3175 3176 3176 3177 3177 3178 3178 3179 3180 3180 3181 3181 3182 3182 3183 3183 3184 3184 3185 3185 3185 3186 3186 3186 3186 3186 3187 3187 3187 3187 3187 3188 3188 3188 3188 3188 3188 3188
3127 3128 3129 3131 3132 3133 3135 3136 3137 3139 3140 3141 3142 3143 3144 3144 3145 3146 3146 3147 3148 3149 3149 3150 3151 3151 3151 3152 3153 3154 3154 3155 3155 3156 3156 3156 3157 3157 3157 3158 3158 3159 3160 3160 3161 3161 3161 3162 3162 3163 3163 3164 3165 3166 3166 3167 3168 3169 3169 3170 3171 3171 3172 3173 3174 3174 3175 3176 3176 3177 3178 3178 3179 3179 3180 3181 3181 3181 3182 3182 3183 3183 3184 3184 3185 3185 3185 3186 3186 3186 3186 3186 3187 3187 3187 3187 3187 3188 3188 3188 3188 3188 3188
3125 3127 3128 3129 3131 3132 3133 3135 3136 3138 3139 3140 3141 3142 3142 3143 3144 3145 3146 3146 3147 3148 3148 3149 3150 3150 3151 3151 3152 3152 3153 3154 3154 3155 3155 3156 3156 3156 3157 3157 3158 3158 3159 3160 3160 3161 3161 3161 3162 3162 3163 3164 3164 3165 3166 3166 3167 3168 3169 3169 3170 3171 3171 3172 3173 3174 3175 3175 3176 3176 3177 3178 3179 3179 3180 3180 3181 3181 3182 3182 3183 3183 3184 3184 3184 3185 3185 3185 3186 3186 3186 3186 3186 3187 3187 3187 3187 3187 3187 3188 3188 3188 3188
3123 3125 3127 3128 3130 3131 3132 3133 3135 3137 3137 3138 3140 3141 3141 3142 3143 3144 3144 3145 3146 3146 3147 3148 3149 3149 3150 3150 3151 3151 3152 3153 3154 3154 3155 3155 3155 3156 3156 3157 3157 3158 3159 3159 3160 3160 3160 3161 3161 3162 3162 3163 3164 3165 3166 3166 3167 3168 3168 3169 3170 3171 3171 3172 3172 3173 3174 3175 3176 3176 3177 3178 3178 3179 3180 3180 3181 3181 3181 3182 3182 3183 3183 3184 3184 3184 3185 3185 3185 3186 3186 3186 3186 3187 3187 3187 3187 3187 3187 3187 3188 3188 3188
3122 3124 3125 3127 3128 3130 3131 3132 3134 3136 3136 3137 3138 3139 3140 3141 3141 3142 3143 3144 3145 3145 3146 3147 3148 3148 3149 3149 3150 3151 3151 3152 3153 3154 3154 3154 3155 3155 3156 3156 3156 3157 3158 3158 3159 3160 3160 3160 3161 3161 3162 3162 3163 3164 3165 3166 3166 3167 3168 3169 3169 3170 3171 3171 3172 3173 3173 3174 3175 3176 3176 3177 3178 3178 3179 3180 3180 3181 3181 3181 3182 3182 3183 3183 3184 3184 3184 3185 3185 3186 3186 3186 3186 3186 3187 3187 3187 3187 3187 3187 3187 3188 3188
3121 3123 3123 3125 3126 3128 3129 3131 3133 3134 3135 3135 3136 3138 3139 3140 3140 3141 3141 3142 3143 3144 3145 3146 3147 3147 3148 3148 3149 3150 3151 3152 3152 3153 3153 3154 3154 3155 3155 3156 3156 3156 3157 3158 3158 3159 3159 3160 3160 3161 3161 3162 3163 3164 3165 3165 3166 3166 3167 3168 3169 3169 3170 3171 3171 3172 3173 3174 3174 3175 3176 3177 3177 3178 3178 3179 3179 3180 3181 3181 3182 3182 3182 3183 3183 3184 3184 3185 3185 3186 3186 3186 3186 3186 3186 3187 3187 3187 3187 3187 3187 3187 3188
3121 3121 3122 3123 3125 3126 3128 3129 3131 3133 3133 3134 3135 3136 3137 3138 3139 3139 3140 3141 3142 3143 3144 3145 3146 3146 3146 3147 3148 3149 3150 3151 3151 3152 3152 3153 3153 3154 3154 3155 3155 3156 3156 3157 3158 3158 3159 3159 3160 3160 3161 3161 3162 3163 3164 3165 3165 3166 3167 3167 3168 3169 3170 3170 3171 3171 3173 3173 3174 3175 3176 3176 3177 3177 3178 3178 3179 3179 3180 3181 3181 3182 3182 3183 3183 3184 3184 3184 3185 3185 3186 3186 3186 3186 3186 3186 3186 3187 3187 3187 3187 3187 3187
3118 3119 3120 3121 3123 3124 3126 3127 3130 3131 3131 3132 3133 3134 3136 3137 3137 3138 3139 3140 3140 3141 3142 3144 3144 3145 3146 3146 3147 3148 3149 3150 3151 3151 3152 3152 3153 3153 3154 3154 3155 3155 3156 3156 3157 3157 3158 3159 3159 3160 3160 3161 3161 3162 3163 3164 3165 3166 3166 3167 3168 3169 3170 3170 3171 3171 3172 3173 3173 3174 3175 3176 3176 3177 3177 3178 3178 3179 3180 3180 3181 3181 3182 3182 3183 3183 3184 3184 3184 3185 3185 3185 3186 3186 3186 3186 3186 3186 3187 3187 3187 3187 3187
3116 3116 3118 3119 3121 3122 3123 3125 3127 3129 3130 3131 3131 3132 3134 3135 3136 3136 3137 3138 3139 3140 3141 3142 3143 3144 3144 3145 3146 3147 3148 3149 3150 3151 3151 3151 3152 3153 3153 3153 3154 3155 3155 3156 3156 3157 3157 3158 3159 3159 3160 3160 3161 3161 3162 3163 3164 3165 3166 3166 3167 3167 3169 3169 3170 3171 3171 3172 3173 3174 3174 3175 3176 3176 3177 3177 3178 3179 3179 3180 3181 3181 3181 3182 3182 3183 3183 3184 3184 3184 3185 3185 3185 3185 3186 3186 3186 3186 3186 3186 3187 3187 3187
3114 3115 3116 3117 3119 3120 3122 3123 3125 3127 3129 3129 3130 3131 3132 3133 3134 3135 3136 3137 3138 3140 3141 3141 3142 3143 3143 3144 3145 3146 3147 3148 3149 3150 3150 3151 3151 3152 3152 3153 3153 3154 3155 3155 3156 3156 3157 3157 3158 3159 3159 3160 3160 3161 3162 3162 3163 3164 3165 3166 3166 3167 3167 3168 3169 3170 3171 3171 3172 3173 3174 3175 3175 3176 3176 3177 3178 3178 3179 3180 3180 3181 3181 3182 3182 3183 3183 3183 3184 3184 3184 3185 3185 3185 3185 3186 3186 3186 3186 3186 3186 3186 3187
3112 3113 3114 3116 3117 3119 3120 3122 3124 3126 3127 3127 3128 3129 3130 3132 3133 3134 3135 3136 3137 3139 3140 3141 3141 3142 3142 3143 3144 3145 3146 3147 3148 3149 3149 3150 3151 3151 3152 3152 3153 3153 3154 3154 3155 3156 3156 3157 3157 3158 3159 3159 3160 3161 3161 3162 3163 3164 3165 3165 3166 3166 3167 3168 3168 3169 3170 3171 3172 3173 3173 3174 3175 3176 3176 3177 3177 3178 3179 3179 3180 3180 3181 3181 3182 3182 3182 3183 3183 3184 3184 3184 3184 3185 3185 3185 3186 3186 3186 3186 3186 3186 3186
3110 3111 3112 3114 3116 3117 3119 3121 3122 3124 3125 3126 3126 3128 3129 3131 3132 3133 3134 3135 3136 3138 3139 3139 3140 3141 3141 3142 3143 3144 3146 3146 3147 3148 3148 3149 3150 3151 3151 3151 3152 3153 3153 3154 3154 3155 3156 3156 3157 3157 3158 3159 3159 3160 3161 3161 3162 3163 3164 3165 3166 3166 3166 3167 3168 3169 3170 3171 3172 3172 3173 3174 3175 3175 3176 3176 3177 3178 3178 3179 3179 3180 3180 3181 3181 3182 3182 3182 3183 3183 3184 3184 3184 3184 3185 3185 3185 3185 3186 3186 3186 3186 3186
3108 3110 3111 3113 3115 3116 3117 3119 3121 3122 3123 3124 3125 3126 3128 3130 3131 3132 3133 3134 3135 3136 3138 3138 3139 3140 3141 3141 3142 3143 3145 3146 3146 3147 3148 3148 3149 3150 3150 3151 3151 3152 3153 3153 3154 3154 3155 3156 3156 3157 3158 3158 3159 3160 3160 3161 3161 3162 3164 3164 3165 3166 3166 3167 3168 3169 3170 3170 3171 3172 3173 3173 3174 3175 3176 3176 3177 3177 3178 3178 3179 3179 3180 3180 3181 3181 3182 3182 3182 3183 3183 3183 3184 3184 3184 3185 3185 3185 3185 3185 3186 3186 3186
3107 3108 3110 3111 3113 3115 3116 3118 3119 3120 3121 3122 3124 3125 3127 3128 3130 3131 3132 3133 3134 3135 3136 3137 3138 3139 3140 3141 3141 3142 3144 3144 3145 3146 3147 3147 3148 3149 3149 3150 3151 3151 3152 3152 3153 3154 3154 3155 3156 3156 3157 3158 3158 3159 3160 3161 3161 3162 3163 3164 3164 3165 3166 3167 3168 3169 3169 3169 3170 3171 3172 3173 3174 3174 3175 3176 3176 3176 3177 3177 3178 3178 3179 3180 3180 3181 3181 3181 3182 3182 3183 3183 3183 3184 3184 3184 3184 3185 3185 3185 3185 3185 3186
3106 3107 3108 3110 3111 3113 3115 3116 3117 3119 3120 3121 3122 3124 3125 3127 3128 3129 3131 3132 3133 3134 3135 3136 3137 3138 3139 3139 3140 3141 3142 3143 3144 3145 3146 3146 3147 3148 3149 3149 3150 3151 3151 3152 3153 3153 3154 3155 3155 3156 3156 3157 3158 3159 3159 3160 3161 3161 3162 3163 3164 3165 3165 3166 3167 3168 3169 3169 3170 3171 3172 3172 3173 3174 3174 3175 3175 3176 3176 3177 3177 3178 3178 3179 3180 3180 3181 3181 3181 3182 3182 3182 3183 3183 3183 3184 3184 3184 3184 3185 3185 3185 3185
3104 3106 3107 3108 3110 3111 3113 3114 3116 3117 3118 3119 3121 3122 3124 3125 3127 3128 3129 3131 3132 3133 3134 3135 3136 3137 3137 3138 3139 3141 3141 3142 3143 3144 3145 3146 3146 3147 3148 3149 3149 3150 3151 3151 3152 3153 3153 3154 3155 3155 3156 3156 3157 3158 3159 3159 3160 3161 3161 3162 3163 3164 3165 3165 3166 3167 3168 3169 3169 3170 3171 3171 3172 3173 3173 3174 3174 3175 3176 3176 3177 3177 3178 3178 3179 3180 3180 3181 3181 3181 3182 3182 3182 3183 3183 3183 3184 3184 3184 3184 3185 3185 3185
3103 3105 3106 3106 3108 3110 3111 3113 3115 3116 3116 3118 3119 3121 3122 3124 3126 3127 3128 3129 3131 3132 3133 3134 3135 3136 3136 3137 3138 3140 3141 3141 3142 3143 3144 3145 3146 3146 3147 3148 3149 3149 3150 3151 3151 3152 3153 3153 3154 3155 3155 3156 3157 3158 3158 3159 3160 3160 3161 3162 3163 3164 3164 3165 3166 3166 3167 3168 3168 3169 3170 3171 3171 3172 3173 3173 3174 3174 3175 3176 3176 3177 3177 3178 3179 3179 3180 3180 3181 3181 3182 3182 3182 3183 3183 3183 3183 3184 3184 3184 3184 3184 3185
3101 3103 3104 3105 3107 3109 3110 3112 3114 3115 3115 3116 3117 3119 3121 3123 3124 3126 3127 3128 3130 3131 3132 3133 3134 3135 3136 3136 3137 3138 3140 3141 3141 3142 3143 3144 3145 3146 3146 3147 3148 3149 3149 3150 3151 3151 3152 3153 3154 3154 3155 3156 3156 3157 3158 3158 3159 3160 3161 3161 3162 3163 3164 3164 3165 3166 3166 3167 3168 3168 3169 3170 3171 3171 3172 3173 3173 3174 3174 3175 3176 3176 3177 3178 3178 3179 3180 3180 3181 3181 3181 3182 3182 3182 3183 3183 3183 3183 3183 3184 3184 3184 3184
3100 3101 3102 3104 3106 3107 3109 3110 3112 3113 3113 3114 3116 3118 3119 3121 3123 3124 3126 3127 3128 3130 3131 3132 3133 3134 3135 3136 3136 3137 3139 3140 3141 3142 3143 3143 3144 3145 3146 3146 3147 3148 3149 3150 3150 3151 3152 3152 3153 3154 3155 3155 3156 3156 3157 3158 3158 3159 3160 3161 3161 3162 3162 3163 3164 3165 3166 3167 3167 3168 3168 3169 3170 3171 3172 3172 3172 3173 3174 3175 3176 3176 3177 3177 3178 3179 3180 3180 3181 3181 3181 3181 3182 3182 3182 3182 3183 3183 3183 3183 3183 3184 3184
3098 3100 3101 3103 3104 3106 3108 3110 3111 3112 3113 3114 3115 3116 3118 3120 3122 3123 3124 3126 3127 3128 3130 3131 3132 3133 3134 3134 3135 3136 3137 3139 3140 3141 3142 3143 3143 3144 3145 3146 3146 3147 3148 3149 3150 3151 3151 3152 3153 3153 3154 3155 3155 3156 3156 3157 3158 3159 3159 3160 3161 3161 3162 3162 3163 3165 3166 3166 3167 3168 3168 3169 3169 3170 3171 3171 3172 3173 3174 3175 3176 3176 3177 3177 3178 3179 3179 3180 3180 3181 3181 3181 3181 3181 3182 3182 3182 3182 3183 3183 3183 3183 3183
3096 3097 3099 3101 3103 3105 3107 3108 3109 3110 3111 3113 3114 3115 3117 3119 3121 3122 3123 3125 3126 3127 3128 3130 3131 3132 3132 3133 3134 3135 3136 3138 3139 3140 3141 3142 3143 3143 3144 3145 3146 3146 3147 3148 3149 3150 3151 3151 3152 3153 3154 3154 3155 3156 3156 3156 3157 3158 3159 3160 3160 3161 3162 3162 3163 3164 3166 3166 3167 3168 3169 3169 3169 3170 3171 3171 3172 3173 3174 3174 3175 3176 3177 3177 3178 3179 3180 3180 3180 3180 3180 3181 3181 3181 3181 3181 3182 3182 3182 3182 3183 3183 3183
3093 3095 3096 3099 3101 3103 3105 3105 3106 3108 3110 3111 3112 3114 3115 3117 3119 3121 3122 3123 3124 3126 3127 3128 3129 3130 3131 3132 3133 3134 3136 3136 3138 3139 3140 3141 3142 3143 3143 3144 3145 3146 3146 3147 3148 3149 3150 3151 3151 3152 3153 3154 3154 3155 3156 3156 3157 3157 3158 3159 3160 3161 3161 3162 3162 3163 3165 3165 3166 3167 3168 3169 3169 3170 3171 3171 3171 3172 3173 3174 3175 3176 3176 3177 3178 3179 3179 3180 3180 3180 3180 3180 3180 3181 3181 3181 3181 3182 3182 3182 3182 3182 3182
3091 3093 3096 3098 3100 3102 3102 3103 3105 3106 3108 3109 3110 3112 3114 3116 3117 3119 3120 3121 3123 3124 3125 3126 3128 3129 3130 3131 3132 3133 3134 3135 3136 3138 3139 3140 3141 3141 3142 3143 3144 3145 3146 3146 3147 3148 3149 3150 3151 3151 3152 3153 3154 3154 3155 3156 3156 3157 3158 3159 3160 3160 3161 3161 3162 3163 3164 3165 3165 3166 3167 3167 3168 3169 3170 3171 3171 3171 3172 3173 3174 3175 3176 3177 3177 3178 3179 3179 3179 3180 3179 3180 3180 3180 3181 3181 3181 3181 3182 3181 3181 3181 3181
3093 3094 3096 3097 3099 3100 3101 3102 3103 3105 3106 3108 3109 3111 3112 3114 3116 3117 3118 3120 3121 3123 3124 3125 3126 3128 3129 3130 3131 3132 3133 3134 3135 3136 3137 3139 3139 3140 3141 3142 3143 3144 3145 3146 3146 3147 3148 3149 3150 3151 3151 3152 3153 3153 3154 3155 3156 3157 3158 3159 3160 3160 3161 3162 3162 3163 3164 3164 3165 3166 3166 3167 3168 3169 3169 3170 3171 3171 3172 3173 3174 3175 3176 3176 3176 3177 3178 3178 3179 3179 3179 3179 3180 3180 3180 3180 3181 3181 3181 3181 3181 3181 3181
3093 3094 3096 3096 3097 3098 3100 3101 3103 3104 3105 3106 3108 3110 3111 3113 3114 3116 3117 3118 3120 3121 3123 3124 3125 3126 3127 3129 3130 3131 3132 3133 3134 3135 3136 3137 3138 3139 3140 3141 3141 3142 3144 3145 3145 3146 3147 3148 3149 3150 3150 3151 3152 3153 3153 3154 3156 3156 3157 3158 3159 3160 3161 3161 3162 3163 3163 3164 3165 3165 3166 3166 3167 3168 3169 3170 3170 3171 3171 3172 3173 3174 3174 3175 3176 3176 3177 3177 3178 3178 3178 3179 3179 3179 3179 3180 3180 3180 3180 3180 3180 3180 3180
3092 3093 3094 3094 3095 3097 3099 3101 3103 3104 3105 3105 3106 3108 3110 3111 3113 3114 3116 3117 3118 3120 3121 3123 3124 3125 3126 3127 3129 3130 3131 3132 3133 3134 3135 3136 3137 3138 3139 3140 3141 3141 3143 3144 3145 3145 3146 3147 3147 3148 3149 3150 3151 3152 3153 3154 3155 3156 3157 3158 3159 3160 3161 3161 3161 3162 3163 3164 3164 3165 3166 3166 3167 3168 3168 3169 3170 3171 3171 3172 3172 3173 3173 3174 3175 3176 3176 3176 3177 3177 3177 3177 3178 3178 3178 3179 3179 3178 3178 3179 3179 3179 3179
3090 3090 3092 3093 3093 3095 3097 3100 3101 3102 3103 3104 3106 3107 3108 3110 3111 3112 3114 3115 3117 3118 3120 3121 3123 3124 3125 3126 3127 3129 3130 3131 3132 3133 3134 3135 3136 3137 3138 3138 3139 3141 3142 3143 3144 3144 3145 3146 3146 3147 3148 3149 3150 3151 3152 3153 3154 3155 3156 3157 3158 3159 3160 3160 3161 3161 3162 3164 3165 3165 3166 3166 3166 3167 3168 3168 3169 3170 3171 3171 3172 3172 3173 3174 3174 3175 3175 3176 3176 3176 3176 3176 3176 3177 3177 3177 3177 3177 3177 3178 3178 3178 3178
3088 3089 3090 3091 3092 3094 3096 3097 3099 3100 3101 3103 3104 3105 3107 3108 3110 3111 3112 3114 3115 3116 3118 3120 3121 3122 3124 3125 3126 3127 3129 3130 3131 3132 3133 3134 3135 3136 3136 3137 3138 3140 3141 3141 3142 3143 3144 3145 3146 3146 3147 3148 3149 3150 3151 3153 3154 3155 3155 3156 3157 3158 3159 3160 3160 3161 3162 3163 3164 3165 3165 3166 3166 3167 3167 3168 3169 3169 3170 3171 3171 3171 3172 3173 3173 3174 3174 3175 3175 3175 3176 3176 3176 3176 3176 3176 3176 3176 3176 3176 3176 3176 3176
3087 3089 3089 3090 3091 3093 3094 3096 3097 3099 3100 3101 3102 3104 3106 3107 3108 3110 3111 3112 3113 3115 3116 3118 3120 3121 3122 3124 3125 3126 3127 3129 3130 3131 3131 3132 3133 3134 3135 3136 3137 3138 3140 3141 3141 3142 3143 3144 3144 3145 3146 3146 3148 3149 3151 3152 3153 3154 3155 3156 3156 3157 3158 3159 3160 3161 3161 3162 3163 3164 3165 3166 3166 3167 3167 3168 3168 3169 3169 3170 3170 3171 3171 3171 3172 3173 3173 3174 3174 3174 3174 3175 3175 3175 3175 3175 3175 3175 3175 3175 3175 3175 3175
3085 3087 3088 3089 3090 3091 3093 3095 3096 3097 3099 3100 3101 3102 3104 3106 3107 3108 3110 3111 3112 3113 3115 3116 3118 3120 3121 3122 3123 3125 3126 3127 3128 3129 3130 3131 3132 3133 3134 3135 3136 3138 3139 3140 3141 3141 3142 3142 3143 3144 3145 3146 3147 3149 3150 3151 3152 3153 3154 3155 3156 3157 3158 3158 3159 3160 3161 3162 3163 3163 3164 3165 3166 3166 3166 3167 3167 3168 3169 3169 3169 3170 3170 3171 3171 3172 3172 3173 3173 3173 3173 3174 3174 3174 3174 3174 3174 3174 3174 3174 3174 3174 3174
3084 3086 3087 3088 3090 3091 3092 3093 3095 3096 3097 3099 3100 3101 3103 3104 3105 3107 3108 3109 3110 3111 3113 3114 3116 3118 3119 3120 3122 3123 3125 3126 3126 3127 3128 3129 3130 3131 3133 3134 3135 3136 3138 3139 3140 3141 3141 3142 3142 3143 3144 3145 3147 3148 3149 3150 3151 3152 3153 3154 3155 3156 3157 3158 3159 3160 3160 3161 3162 3163 3163 3164 3165 3166 3166 3166 3167 3167 3168 3168 3169 3169 3170 3170 3171 3171 3171 3172 3172 3172 3172 3173 3173 3173 3172 3172 3172 3173 3173 3173 3172 3173 3173
3083 3085 3086 3088 3089 3090 3091 3092 3093 3094 3096 3098 3099 3100 3101 3103 3105 3106 3106 3107 3109 3110 3111 3112 3114 3116 3117 3119 3120 3121 3123 3123 3124 3125 3126 3128 3129 3130 3131 3133 3134 3135 3136 3137 3138 3139 3140 3141 3141 3141 3142 3145 3146 3147 3148 3149 3150 3151 3152 3153 3154 3156 3156 3157 3158 3159 3160 3161 3161 3162 3163 3163 3164 3165 3165 3166 3166 3167 3167 3167 3168 3168 3169 3169 3170 3170 3171 3171 3171 3171 3171 3171 3171 3171 3171 3171 3171 3171 3171 3172 3172 3172 3172
3083 3085 3086 3087 3089 3090 3091 3091 3093 3094 3095 3096 3098 3099 3100 3101 3103 3104 3105 3106 3107 3109 3109 3111 3112 3114 3116 3117 3118 3120 3121 3121 3122 3124 3126 3126 3128 3129 3130 3131 3132 3133 3135 3136 3137 3138 3139 3139 3139 3140 3142 3144 3145 3146 3147 3148 3149 3150 3151 3152 3153 3154 3156 3156 3157 3158 3159 3160 3161 3161 3162 3163 3163 3164 3165 3165 3166 3166 3166 3167 3167 3167 3168 3168 3169 3169 3170 3170 3170 3170 3170 3171 3171 3171 3170 3170 3171 3171 3171 3171 3171 3171 3171
3081 3084 3086 3087 3087 3088 3090 3091 3092 3093 3094 3095 3096 3097 3099 3100 3101 3102 3103 3104 3106 3107 3108 3108 3110 3111 3113 3115 3116 3117 3118 3119 3121 3123 3124 3125 3126 3127 3128 3129 3131 3132 3133 3134 3135 3136 3137 3137 3138 3139 3141 3142 3144 3145 3146 3146 3147 3149 3150 3151 3152 3153 3154 3155 3156 3157 3158 3159 3160 3161 3161 3162 3162 3163 3163 3164 3164 3165 3165 3166 3166 3166 3166 3167 3167 3168 3168 3169 3169 3169 3169 3169 3169 3169 3169 3169 3170 3170 3169 3169 3169 3170 3169
3080 3082 3084 3086 3086 3086 3088 3089 3091 3092 3093 3094 3095 3096 3097 3098 3100 3101 3102 3104 3105 3106 3107 3107 3108 3109 3111 3112 3113 3114 3116 3118 3120 3121 3122 3123 3124 3125 3126 3127 3129 3130 3131 3132 3133 3134 3135 3136 3136 3138 3140 3141 3142 3143 3144 3145 3146 3147 3148 3150 3151 3152 3153 3153 3155 3156 3157 3158 3158 3159 3160 3161 3161 3162 3162 3163 3163 3163 3163 3164 3165 3165 3166 3166 3166 3167 3167 3168 3168 3168 3168 3168 3168 3168 3168 3168 3168 3168 3168 3168 3168 3168 3168
3080 3081 3082 3084 3085 3085 3086 3088 3089 3090 3091 3092 3094 3095 3096 3097 3099 3100 3102 3103 3104 3104 3106 3107 3107 3107 3108 3110 3111 3112 3114 3116 3118 3120 3121 3121 3122 3123 3124 3126 3127 3128 3129 3131 3132 3132 3133 3134 3135 3136 3138 3139 3141 3141 3143 3144 3145 3146 3147 3148 3149 3151 3152 3152 3153 3154 3155 3156 3157 3158 3159 3159 3161 3161 3161 3161 3161 3161 3161 3162 3163 3164 3165 3166 3166 3166 3166 3166 3166 3166 3166 3166 3166 3167 3167 3167 3167 3167 3167 3167 3167 3167 3167
3079 3080 3081 3082 3084 3084 3085 3086 3088 3089 3090 3091 3092 3094 3096 3097 3098 3099 3100 3101 3101 3102 3104 3106 3107 3107 3107 3108 3110 3111 3113 3115 3116 3117 3119 3120 3120 3121 3122 3124 3125 3126 3128 3129 3130 3131 3132 3133 3134 3135 3137 3138 3139 3140 3141 3142 3144 3145 3146 3146 3148 3149 3150 3151 3152 3152 3153 3155 3156 3156 3157 3158 3159 3159 3159 3159 3159 3160 3161 3161 3162 3164 3165 3165 3165 3165 3165 3165 3165 3165 3165 3166 3166 3166 3166 3166 3166 3166 3166 3166 3166 3166 3166
3079 3080 3081 3081 3082 3083 3084 3085 3086 3087 3089 3090 3091 3093 3095 3096 3097 3098 3098 3098 3099 3101 3102 3104 3106 3106 3106 3107 3108 3110 3111 3113 3115 3116 3117 3118 3119 3120 3121 3122 3123 3125 3126 3127 3128 3129 3131 3132 3133 3134 3135 3136 3138 3139 3140 3141 3142 3143 3144 3145 3146 3147 3148 3150 3151 3151 3152 3153 3154 3155 3156 3156 3157 3157 3158 3157 3158 3159 3160 3161 3162 3163 3164 3163 3163 3163 3164 3164 3164 3163 3164 3165 3165 3165 3165 3165 3165 3165 3165 3165 3165 3165 3165
3079 3080 3080 3080 3081 3081 3082 3083 3085 3086 3088 3089 3090 3091 3094 3096 3096 3096 3096 3096 3097 3099 3101 3102 3104 3105 3106 3106 3107 3109 3111 3112 3113 3114 3115 3116 3117 3119 3120 3121 3122 3124 3125 3126 3127 3128 3129 3130 3131 3133 3134 3136 3137 3138 3138 3140 3141 3141 3142 3143 3144 3145 3146 3147 3148 3149 3150 3151 3152 3153 3154 3155 3155 3156 3156 3157 3158 3159 3160 3161 3162 3162 3162 3162 3162 3162 3162 3163 3162 3162 3162 3162 3162 3163 3163 3163 3163 3163 3163 3164 3164 3164 3164
3080 3080 3080 3080 3080 3080 3081 3082 3083 3085 3086 3087 3088 3089 3091 3092 3093 3093 3093 3094 3096 3098 3100 3101 3103 3104 3106 3106 3107 3108 3109 3110 3111 3113 3114 3115 3116 3118 3119 3121 3121 3122 3123 3124 3125 3126 3127 3128 3130 3131 3133 3134 3135 3136 3137 3138 3138 3139 3140 3141 3142 3143 3144 3145 3146 3146 3147 3149 3150 3151 3153 3153 3154 3156 3157 3157 3157 3158 3159 3160 3161 3161 3161 3161 3161 3161 3161 3162 3162 3161 3161 3160 3160 3161 3161 3161 3161 3161 3161 3162 3162 3162 3162
3080 3080 3080 3079 3080 3080 3080 3081 3082 3083 3085 3086 3087 3088 3089 3090 3090 3090 3090 3091 3093 3096 3098 3100 3102 3103 3105 3106 3106 3106 3107 3109 3110 3111 3113 3114 3115 3116 3117 3118 3119 3121 3122 3122 3123 3123 3125 3126 3128 3129 3131 3133 3134 3135 3135 3136 3136 3137 3138 3139 3141 3142 3143 3143 3144 3144 3146 3147 3149 3151 3152 3153 3154 3156 3156 3156 3157 3157 3158 3159 3160 3160 3160 3160 3160 3160 3160 3161 3161 3160 3160 3159 3159 3159 3159 3160 3160 3159 3159 3160 3160 3161 3161
3080 3080 3079 3079 3079 3079 3079 3080 3081 3082 3083 3084 3086 3087 3088 3087 3087 3087 3089 3091 3093 3096 3097 3099 3100 3102 3104 3105 3105 3105 3106 3108 3110 3111 3112 3114 3115 3115 3115 3116 3117 3119 3120 3121 3121 3122 3122 3124 3126 3127 3129 3131 3131 3132 3132 3133 3134 3135 3136 3137 3139 3140 3141 3142 3143 3144 3145 3147 3148 3149 3150 3152 3153 3155 3156 3156 3156 3157 3158 3158 3158 3158 3158 3158 3158 3158 3159 3159 3159 3159 3159 3158 3158 3158 3157 3157 3157 3157 3157 3157 3158 3158 3159
3080 3079 3079 3078 3078 3078 3079 3079 3081 3081 3082 3083 3083 3084 3085 3085 3086 3087 3090 3092 3094 3096 3097 3099 3100 3101 3103 3103 3104 3104 3105 3107 3108 3110 3111 3112 3113 3114 3114 3115 3116 3117 3118 3119 3120 3120 3121 3122 3124 3126 3127 3128 3129 3130 3130 3131 3132 3132 3133 3135 3137 3138 3140 3141 3142 3144 3145 3146 3147 3148 3150 3151 3152 3153 3154 3154 3155 3155 3156 3156 3156 3156 3156 3157 3157 3157 3157 3157 3157 3157 3157 3157 3157 3156 3156 3156 3156 3155 3155 3156 3156 3156 3156
3079 3079 3078 3077 3077 3077 3078 3079 3080 3081 3082 3082 3082 3082 3082 3084 3085 3086 3088 3090 3091 3093 3095 3096 3098 3100 3101 3101 3101 3102 3104 3106 3107 3108 3109 3111 3112 3112 3113 3114 3115 3116 3116 3116 3118 3119 3120 3121 3123 3124 3125 3126 3127 3127 3128 3129 3130 3131 3132 3133 3135 3136 3138 3139 3141 3143 3145 3146 3146 3147 3150 3151 3151 3151 3152 3153 3153 3154 3154 3154 3154 3155 3155 3155 3155 3155 3155 3155 3156 3156 3156 3156 3156 3155 3155 3154 3154 3154 3154 3154 3154 3154 3154
3078 3078 3078 3077 3076 3076 3076 3077 3078 3080 3081 3082 3082 3082 3082 3083 3085 3086 3087 3088 3090 3091 3092 3094 3096 3098 3099 3099 3099 3100 3102 3105 3106 3107 3108 3110 3110 3111 3111 3113 3114 3115 3116 3116 3117 3119 3119 3120 3121 3121 3122 3124 3125 3126 3127 3127 3128 3129 3131 3132 3133 3135 3136 3138 3140 3142 3143 3144 3145 3146 3148 3149 3149 3150 3151 3151 3152 3152 3152 3152 3152 3153 3153 3153 3154 3154 3154 3154 3153 3153 3154 3154 3154 3154 3154 3153 3153 3153 3153 3152 3152 3152 3152
3077 3078 3077 3077 3076 3076 3076 3076 3077 3078 3079 3081 3082 3082 3082 3083 3084 3085 3087 3088 3089 3090 3091 3093 3095 3096 3098 3098 3099 3100 3101 3103 3104 3106 3107 3108 3109 3110 3110 3111 3113 3114 3115 3116 3116 3117 3117 3117 3118 3120 3121 3121 3123 3125 3126 3127 3127 3128 3130 3131 3132 3134 3135 3137 3139 3140 3141 3142 3143 3144 3146 3147 3148 3149 3149 3150 3151 3151 3151 3151 3151 3151 3151 3151 3152 3152 3152 3152 3152 3152 3151 3151 3152 3152 3152 3152 3152 3151 3151 3151 3151 3151 3151
3076 3076 3076 3076 3076 3075 3075 3075 3076 3076 3078 3079 3081 3082 3083 3083 3084 3085 3086 3088 3089 3090 3091 3092 3094 3096 3097 3098 3098 3099 3101 3102 3103 3105 3106 3107 3108 3108 3109 3110 3111 3111 3112 3113 3114 3114 3115 3115 3116 3117 3118 3119 3121 3122 3124 3126 3127 3128 3129 3131 3132 3133 3134 3136 3137 3138 3139 3140 3141 3142 3144 3145 3146 3147 3148 3148 3149 3149 3149 3149 3149 3149 3150 3150 3150 3150 3150 3150 3150 3150 3150 3150 3150 3150 3150 3150 3150 3150 3150 3150 3150 3150 3149
3075 3075 3076 3075 3075 3075 3074 3074 3075 3076 3076 3078 3080 3081 3083 3084 3084 3085 3086 3087 3088 3089 3090 3091 3093 3094 3096 3096 3097 3098 3099 3101 3102 3104 3105 3106 3107 3107 3108 3109 3109 3110 3111 3111 3113 3113 3114 3114 3115 3115 3115 3117 3118 3120 3121 3122 3124 3126 3127 3128 3129 3130 3131 3133 3134 3136 3136 3138 3139 3141 3142 3143 3144 3145 3146 3146 3147 3147 3147 3147 3147 3147 3148 3148 3148 3148 3148 3149 3149 3149 3149 3148 3148 3148 3148 3148 3149 3149 3149 3148 3148 3148 3148